Anderson, SC

1:44 AM EDT on August 21, 2017 (GMT -0400)
Anderson Regional

Weather History for KAND - January, 2014

Change the Weather History Date:

Wednesday, January 29, 2014

  Actual Average Record
Temperature  
Mean Temperature 24 °F -  
Max Temperature 30 °F 55 °F 78 °F (2002)
Min Temperature 18 °F 31 °F 12 °F (1977)
Degree Days  
Heating Degree Days 40    
Moisture  
Dew Point 15 °F    
Average Humidity 66    
Maximum Humidity 84    
Minimum Humidity 42    
Precipitation  
Precipitation 0.00 in - - ()
Sea Level Pressure  
Sea Level Pressure 30.28 in    
Wind  
Wind Speed 2 mph (ENE)    
Max Wind Speed 7 mph    
Max Gust Speed -    
Visibility 10 miles    
Events      
Averages and records for this station are not official NWS values.
T = Trace of Precipitation, MM = Missing Value Source: NWS Daily Summary

Daily Weather History Graph

Daily Weather History Graph

Search for Another Location

Airport or City:

Trip Planner

Search our weather history database for the weather conditions in past years. The results will help you decide how hot, cold, wet, or windy it might be!

Date:

Astronomy

Jan. 29, 2014 Rise Set
Actual Time 7:30 AM EST 5:57 PM EST
Civil Twilight 7:04 AM EST 6:24 PM EST
Nautical Twilight 6:34 AM EST 6:54 PM EST
Astronomical Twilight 6:04 AM EST 7:24 PM EST
Moon 6:06 AM EST (1/29) 4:55 PM EST (1/29)
Length of Visible Light 11h 19m
Length of Day
10h 26m
Waning Crescent, 2% of the Moon is Illuminated
Jan 29
Waning Crescent
Jan 30
New
Feb 6
First Quarter
Feb 14
Full
Feb 22
Last Quarter

Hourly Weather History & Observations

Time (EST) Temp. Windchill Dew Point Humidity Pressure Visibility Wind Dir Wind Speed Gust Speed Precip Events Conditions
12:56 AM 24.1 °F 19.7 °F 19.0 °F 81% 30.19 in 10.0 mi North 3.5 mph - N/A   Overcast
1:56 AM 24.1 °F - 18.0 °F 77% 30.19 in 10.0 mi Calm Calm - N/A   Overcast
2:15 AM 24.8 °F - 17.6 °F 74% 30.17 in 10.0 mi Calm Calm - N/A   Overcast
2:56 AM 25.0 °F - 18.0 °F 75% 30.19 in 10.0 mi Calm Calm - N/A   Overcast
3:56 AM 25.0 °F - 18.0 °F 75% 30.19 in 10.0 mi Calm Calm - N/A   Overcast
4:56 AM 24.1 °F 18.2 °F 18.0 °F 77% 30.19 in 10.0 mi East 4.6 mph - N/A   Overcast
5:56 AM 24.1 °F 18.2 °F 18.0 °F 77% 30.20 in 10.0 mi ENE 4.6 mph - N/A   Overcast
6:56 AM 24.1 °F - 18.0 °F 77% 30.23 in 10.0 mi Calm Calm - N/A   Overcast
7:56 AM 24.1 °F 17.0 °F 18.0 °F 77% 30.25 in 10.0 mi ENE 5.8 mph - N/A   Overcast
8:56 AM 25.0 °F 18.1 °F 17.1 °F 72% 30.28 in 10.0 mi ENE 5.8 mph - N/A   Overcast
9:21 AM 24.8 °F 17.9 °F 17.6 °F 74% 30.28 in 10.0 mi ENE 5.8 mph - N/A   Overcast
9:56 AM 25.0 °F 18.1 °F 14.0 °F 63% 30.32 in 10.0 mi East 5.8 mph - N/A   Overcast
10:56 AM 26.1 °F 18.4 °F 10.0 °F 51% 30.34 in 10.0 mi ENE 6.9 mph - N/A   Overcast
11:56 AM 26.1 °F 19.4 °F 8.1 °F 47% 30.33 in 10.0 mi East 5.8 mph - N/A   Overcast
12:56 PM 28.9 °F 22.8 °F 10.0 °F 45% 30.31 in 10.0 mi East 5.8 mph - N/A   Clear
1:56 PM 28.9 °F - 12.0 °F 49% 30.29 in 10.0 mi Calm Calm - N/A   Clear
2:56 PM 30.0 °F - 10.9 °F 45% 30.30 in 10.0 mi Calm Calm - N/A   Clear
3:56 PM 30.0 °F - 10.0 °F 43% 30.30 in 10.0 mi Calm Calm - N/A   Clear
4:56 PM 30.9 °F - 10.0 °F 42% 30.30 in 10.0 mi Calm Calm - N/A   Clear
5:56 PM 28.0 °F 22.8 °F 14.0 °F 56% 30.31 in 10.0 mi WSW 4.6 mph - N/A   Clear
6:56 PM 27.0 °F - 15.1 °F 61% 30.32 in 10.0 mi Calm Calm - N/A   Clear
7:56 PM 24.1 °F - 15.1 °F 69% 30.33 in 10.0 mi Calm Calm - N/A   Clear
8:56 PM 23.0 °F - 15.1 °F 72% 30.32 in 10.0 mi Calm Calm - N/A   Clear
9:56 PM 19.9 °F - 15.1 °F 81% 30.33 in 10.0 mi Calm Calm - N/A   Clear
10:56 PM 19.9 °F - 15.1 °F 81% 30.35 in 10.0 mi Calm Calm - N/A   Clear
11:56 PM 18.0 °F - 14.0 °F 84% 30.36 in 10.0 mi Calm Calm - N/A   Clear